Sitka, Alaska, United States (99835)
Lat: 57.05N, Lon: 135.33W
Wx Zone: AKZ023
Local Info
Past Weather Observations for Sunday, August 23, 2015

NOTE: This archive is for the closest National Weather Service station to Sitka. Information may differ from the station used for current weather conditions.

Click here for Long-term Archive

Time Weather Temperature Dewpoint Humidity Pressure Winds Precip Visibility
23:53
Overcast
52°F / 11°C 52°F / 11°C 100% 29.92 in
(1013 mb)
E 9.2 mph
(E 15 kph)
- 10SM
22:53
Overcast
52°F / 11°C 52°F / 11°C 100% 29.89 in
(1012 mb)
SE 8.1 mph
(SE 13 kph)
0.00 in
(0.00 mm)
10SM
21:53
Overcast
Light Rain
52°F / 11°C 52°F / 11°C 100% 29.89 in
(1012 mb)
E 4.6 mph
(E 7 kph)
0.05 in
(1.27 mm)
10SM
20:53
Overcast
Light Rain
52°F / 11°C 52°F / 11°C 100% 29.89 in
(1012 mb)
SE 4.6 mph
(SE 7 kph)
0.02 in
(0.51 mm)
10SM
19:53
Overcast
Light Rain
52°F / 11°C 52°F / 11°C 100% 29.89 in
(1012 mb)
SE 5.8 mph
(SE 9 kph)
0.02 in
(0.51 mm)
10SM
18:53
Overcast
Light Rain
52°F / 11°C 52°F / 11°C 100% 29.86 in
(1011 mb)
ESE 4.6 mph
(ESE 7 kph)
0.03 in
(0.76 mm)
10SM
17:53
Overcast
Light Rain
52°F / 11°C 52°F / 11°C 100% 29.86 in
(1011 mb)
ESE 3.5 mph
(ESE 6 kph)
0.06 in
(1.52 mm)
10SM
16:53
Overcast
Light Rain
54°F / 12°C 54°F / 12°C 100% 29.86 in
(1011 mb)
E 4.6 mph
(E 7 kph)
0.07 in
(1.78 mm)
6SM
15:53
Overcast
Light Rain
54°F / 12°C 52°F / 11°C 94% 29.86 in
(1011 mb)
S 9.2 mph
(S 15 kph)
0.04 in
(1.02 mm)
10SM
15:01
Overcast
Rain
52°F / 11°C 52°F / 11°C 100% 29.83 in
(1010 mb)
Variable 5.8 mph
(Variable 9 kph)
0.01 in
(0.25 mm)
3SM
14:53
Overcast
Rain
52°F / 11°C 52°F / 11°C 100% 29.83 in
(1010 mb)
E 8.1 mph
(E 13 kph)
0.14 in
(3.56 mm)
3SM
13:53
Overcast
Light Rain
54°F / 12°C 54°F / 12°C 100% 29.83 in
(1010 mb)
S 12.7 mph
(S 20 kph)
0.15 in
(3.81 mm)
5SM
12:53
Overcast
Rain
54°F / 12°C 54°F / 12°C 100% 29.8 in
(1009 mb)
SE 4.6 mph
(SE 7 kph)
0.11 in
(2.79 mm)
3SM
12:29
Overcast
Light Rain
54°F / 12°C 54°F / 12°C 100% 29.8 in
(1009 mb)
E 11.5 mph
(E 19 kph)
0.07 in
(1.78 mm)
5SM
12:16
Overcast
Rain
54°F / 12°C 54°F / 12°C 100% 29.8 in
(1009 mb)
Variable 6.9 mph
(Variable 11 kph)
0.05 in
(1.27 mm)
2SM
11:53
Overcast
Light Rain
54°F / 12°C 52°F / 11°C 94% 29.8 in
(1009 mb)
SE 11.5 mph
(SE 19 kph)
0.16 in
(4.06 mm)
7SM
11:41
Overcast
Light Rain
54°F / 12°C 54°F / 12°C 100% 29.8 in
(1009 mb)
SE 8.1 mph
(SE 13 kph)
0.15 in
(3.81 mm)
3SM
11:28
Overcast
Heavy Rain
54°F / 12°C 54°F / 12°C 100% 29.8 in
(1009 mb)
SE 6.9 mph
(SE 11 kph)
0.10 in
(2.54 mm)
1 3/4SM
10:53
Overcast
Rain
55°F / 13°C 52°F / 11°C 88% 29.77 in
(1008 mb)
SE 11.5 mph
(SE 19 kph)
0.05 in
(1.27 mm)
4SM
09:53
Overcast
55°F / 13°C 52°F / 11°C 88% 29.77 in
(1008 mb)
SSE 21.9 mph
(SSE 35 kph)
0.01 in
(0.25 mm)
10SM
08:53
Overcast
Light Rain
54°F / 12°C 52°F / 11°C 94% 29.77 in
(1008 mb)
SE 12.7 mph
(SE 20 kph)
0.01 in
(0.25 mm)
9SM
08:21
Overcast
54°F / 12°C 52°F / 11°C 94% 29.74 in
(1007 mb)
SE 12.7 mph
(SE 20 kph)
- 10SM
07:53
Overcast
55°F / 13°C 52°F / 11°C 88% 29.74 in
(1007 mb)
SSE 16.1 mph
(SSE 26 kph)
0.02 in
(0.51 mm)
10SM
06:53
Overcast
Light Rain
54°F / 12°C 52°F / 11°C 94% 29.74 in
(1007 mb)
SSE 10.4 mph
(SSE 17 kph)
0.20 in
(5.08 mm)
6SM
06:32
Overcast
Rain
54°F / 12°C 54°F / 12°C 100% 29.74 in
(1007 mb)
S 17.3 mph
(S 28 kph)
0.16 in
(4.06 mm)
3SM
06:24
Overcast
Heavy Rain
54°F / 12°C 52°F / 11°C 94% 29.74 in
(1007 mb)
SSE 16.1 mph
(SSE 26 kph)
0.14 in
(3.56 mm)
1 3/4SM
05:53
Overcast
Rain
54°F / 12°C 52°F / 11°C 94% 29.74 in
(1007 mb)
SE 13.8 mph
(SE 22 kph)
0.10 in
(2.54 mm)
5SM
04:53
Overcast
Light Rain
52°F / 11°C 52°F / 11°C 100% 29.74 in
(1007 mb)
SE 9.2 mph
(SE 15 kph)
0.09 in
(2.29 mm)
7SM
03:53
Overcast
Light Rain
54°F / 12°C 52°F / 11°C 94% 29.74 in
(1007 mb)
SE 9.2 mph
(SE 15 kph)
0.07 in
(1.78 mm)
6SM
03:48
Overcast
Rain
54°F / 12°C 52°F / 11°C 94% 29.74 in
(1007 mb)
SE 11.5 mph
(SE 19 kph)
0.06 in
(1.52 mm)
6SM
03:22
Overcast
Light Rain
54°F / 12°C 52°F / 11°C 94% 29.74 in
(1007 mb)
SSE 19.6 mph
(SSE 32 kph)
0.01 in
(0.25 mm)
8SM
03:00
Overcast
Light Rain
54°F / 12°C 50°F / 10°C 88% 29.74 in
(1007 mb)
SSE 16.1 mph
(SSE 26 kph)
0.00 in
(0.00 mm)
10SM
02:53
Overcast
Light Rain
54°F / 12°C 50°F / 10°C 88% 29.74 in
(1007 mb)
SSE 13.8 mph
(SSE 22 kph)
0.02 in
(0.51 mm)
10SM
01:53
Overcast
Light Rain
54°F / 12°C 52°F / 11°C 94% 29.74 in
(1007 mb)
SSE 18.4 mph
(SSE 30 kph)
0.05 in
(1.27 mm)
7SM
01:39
Overcast
Light Rain
54°F / 12°C 54°F / 12°C 100% 29.74 in
(1007 mb)
SSE 17.3 mph
(SSE 28 kph)
0.04 in
(1.02 mm)
5SM
01:31
Overcast
Rain
54°F / 12°C 54°F / 12°C 100% 29.74 in
(1007 mb)
SSE 17.3 mph
(SSE 28 kph)
0.03 in
(0.76 mm)
6SM
00:53
Overcast
Rain
55°F / 13°C 54°F / 12°C 94% 29.74 in
(1007 mb)
SSE 10.4 mph
(SSE 17 kph)
0.12 in
(3.05 mm)
4SM
00:27
Overcast
Rain
55°F / 13°C 54°F / 12°C 94% 29.71 in
(1006 mb)
S 18.4 mph
(S 30 kph)
0.03 in
(0.76 mm)
5SM
Time Weather Temperature Dewpoint Humidity Pressure Winds Precip Visibility


Weather for websites

WeatherForYou.com, LLC is not responsible for any damages or problems caused by this service. Current weather conditions are obtained from the closest station including government and personal stations which may have varying degrees of accuracy. Weather forecasts are derived from the NOAA NDFD. Like all things, this site belongs to Jesus Christ... He just trusts us to maintain it. If you have any questions or comments email webmaster@weatherforyou.com

Copyright © 2015, WeatherForYou.com LLC. All rights reserved.